This demonstration page uses our WeatherBlox Daily Observations layout. Learn more.

Left ArrowRight Arrow

Hourly Observations for April 3, 2020

Temp ( °F °C ) Dew Point ( °F °C ) Humidity (%) Winds ( mph kmh ) Pressure ( in mb ) Visibility ( mi km ) Precip ( " mm )
12:51 am 00:51 Clear 60 15.6 30 -1.1 32 32 NW 13 20 29.79 1009 10 16.0934 0 0
1:51 am 01:51 Clear 59 15 30 -1.1 33 33 NW 12 19 29.78 1009 10 16.0934 0 0
2:51 am 02:51 Clear 55 12.8 31 -0.6 40 40 NNW 3 6 29.79 1009 10 16.0934 0 0
3:51 am 03:51 Clear 49 9.4 31 -0.6 50 50 E 7 11 29.82 1010 10 16.0934 0 0
4:51 am 04:51 Clear 47 8.3 31 -0.6 54 54 SE 5 7 29.81 1010 10 16.0934 0 0
5:51 am 05:51 Clear 44 6.7 31 -0.6 60 60 SSE 3 6 29.84 1010 10 16.0934 0 0
6:51 am 06:51 Sunny 50 10 32 0 50 50 E 5 7 29.86 1011 10 16.0934 0 0
7:51 am 07:51 Sunny 58 14.4 33 0.6 39 39 ESE 6 9 29.86 1011 10 16.0934 0 0
8:51 am 08:51 Sunny 65 18.3 32 0 29 29 SSE 7 11 29.85 1011 10 16.0934 0 0
9:51 am 09:51 Sunny 68 20 32 0 26 26 ESE 6 9 29.85 1011 10 16.0934 0 0
10:51 am 10:51 Sunny 72 22.2 30 -1.1 21 21 VRB 3 6 29.82 1010 10 16.0934 0 0
11:51 am 11:51 Sunny 75 23.9 32 0 21 21 ENE 3 6 29.78 1009 10 16.0934 0 0
12:51 pm 12:51 Sunny 75 23.9 30 -1.1 19 19 VRB 5 7 29.74 1007 10 16.0934 0 0
1:51 pm 13:51 Sunny 78 25.6 29 -1.7 16 16 WNW 7 11 29.7 1006 10 16.0934 0 0
2:51 pm 14:51 Sunny 80 26.7 27 -2.8 14 14 VRB 3 6 29.67 1005 10 16.0934 0 0
3:51 pm 15:51 Sunny 79 26.1 27 -2.8 15 15 undefined N/A 29.66 1004 10 16.0934 0 0
4:51 pm 16:51 Sunny 80 26.7 27 -2.8 14 14 NW 7 11 29.65 1004 10 16.0934 0 0
5:51 pm 17:51 Sunny 76 24.4 29 -1.7 18 18 NW 16 26 29.67 1005 10 16.0934 0 0
6:51 pm 18:51 Clear 72 22.2 30 -1.1 21 21 NW 10 17 29.68 1005 10 16.0934 0 0
7:51 pm 19:51 Mostly Clear 70 21.1 30 -1.1 23 23 NW 9 15 29.69 1005 10 16.0934 0 0
8:51 pm 20:51 Mostly Clear 67 19.4 30 -1.1 25 25 NW 10 17 29.71 1006 10 16.0934 0 0
9:51 pm 21:51 Mostly Clear 62 16.7 30 -1.1 30 30 NW 10 17 29.73 1007 10 16.0934 0 0
10:51 pm 22:51 Clear 58 14.4 30 -1.1 35 35 NNW 9 15 29.74 1007 10 16.0934 0 0
11:51 pm 23:51 Clear 60 15.6 30 -1.1 32 32 Calm 29.75 1007 10 16.0934 0 0

Powered by AerisWeather